User: anonymous   Login
Location: Fort Wayne
(41.1310°N, 85.1290°W)
Time: 07:03:02
(UTC-05:00)
Language:

Cosmos 2227 Rocket - Orbit

View from above orbital plane
View from above orbital plane
View from above satellite
View from above satellite

Ground track
Ground track

The orbit data is extracted from the following two-line orbital elements,

1 22285U 92093B   14354.90871439 -.00000107  00000-0 -30907-4 0  4796
2 22285 071.0227 319.6568 0002199 047.2529 312.8778 14.14942308133917
Epoch (UTC): 20 December 2014 21:48:32
Eccentricity: 0.0002199
inclination: 71.0227°
perigee height: 841 km
apogee height: 844 km
right ascension of ascending node: 319.6568°
argument of perigee: 47.2529°
revolutions per day: 14.14942308
mean anomaly at epoch: 312.8778°
orbit number at epoch: 13391

The dashed part of the orbit path shows where the satellite is in the earth's shadow,  

DLR